Torna al catalogo

O3B FM5

AttivoComunicazioniMEO
NORAD 39188·PAYLOAD·🇱🇺 Luxembourg

Lanciato Jun 25, 2013 da Guiana Space Centre

Loading…

Prossimi Passaggi (prossime 24 ore)

TLE

AggiornatoSource: CelesTrak SupGP

Epoca: Sep 13, 2026, 13:00 UTC

1 39188C 13031A   26256.54166667  .00000000  00000+0  00000+0 0  2563
2 39188   0.0824 318.4735 0002492 200.2757 111.5609  5.00115786    13

Traccia O3B FM5 in tempo reale con AllMySat

Download on the App Store